Temp
49 49 49 49 49 49 49 49 49 49 49 49 49 49 49 50 50 44 41 42 43 32 37 43 45 39 41 38 34 40 35 35 32 29 28 28 27 34 33 39 35 33 29 26 27 23 21 42 40 33 33 35 33 32
48 48 48 48 48 48 48 48 48 48 48 48 49 49 49 50 51 48 42 45 45 37 37 44 45 45 45 42 39 39 39 39 37 32 29 28 27 27 31 27 42 32 35 30 34 31 37 39 36 37 36 33 32 31
48 48 48 48 48 48 48 48 48 48 48 48 48 49 49 50 51 48 41 42 42 34 35 37 39 47 51 47 46 37 39 44 41 41 33 31 28 32 26 29 33 39 42 35 34 35 35 36 37 36 35 33 33 34
47 47 47 47 47 47 47 47 47 47 48 48 48 49 49 50 50 48 42 42 42 36 27 33 49 44 50 49 47 46 44 44 41 37 31 30 22 33 26 30 30 37 39 36 34 36 35 35 34 34 34 35 33 38
47 47 47 47 47 47 47 47 47 47 48 48 48 49 49 49 50 46 42 43 44 37 30 30 45 49 51 48 46 45 44 40 35 31 26 24 27 29 28 30 29 37 35 30 29 36 32 31 33 35 33 32 33 35
46 46 46 46 46 47 47 47 47 47 47 48 48 49 49 49 49 41 34 42 44 41 32 27 39 42 44 45 43 41 41 38 37 32 30 31 39 31 20 23 37 40 42 39 31 36 33 33 34 35 33 35 35 35
46 46 46 46 46 47 46 46 47 47 47 48 48 49 49 49 42 37 35 41 48 41 31 31 27 39 42 41 39 38 39 35 34 27 25 29 33 31 20 21 37 39 37 37 37 34 28 33 28 34 35 36 35 34
46 46 46 46 46 46 46 46 47 47 47 48 48 49 49 49 47 40 42 48 45 37 34 24 31 31 43 33 30 37 33 33 30 27 27 26 31 26 25 33 37 37 35 35 35 34 30 30 32 33 35 35 31 30
46 46 46 46 46 46 46 46 46 47 47 48 48 48 43 40 35 39 48 48 43 37 24 26 26 24 38 33 33 31 36 28 31 22 27 30 24 28 33 35 35 33 31 30 32 32 30 28 29 32 32 31 29 25
46 46 46 46 46 46 46 46 46 47 47 47 43 34 26 35 48 46 38 32 31 32 33 28 35 29 35 31 28 27 27 25 26 29 30 25 29 39 39 39 35 31 31 29 23 23 26 27 29 30 30 31 29 26
46 46 46 46 46 46 46 46 46 46 47 38 33 31 39 47 39 36 30 26 28 27 28 31 33 30 36 28 27 29 27 25 24 27 27 29 27 32 34 30 29 28 27 24 23 23 26 30 30 29 28 28 27 23
46 46 46 46 46 46 46 46 46 40 36 38 38 40 40 36 32 28 27 29 29 27 27 27 29 36 34 36 28 27 29 26 24 31 28 25 29 35 32 31 29 27 26 25 24 23 27 30 30 28 26 24 17 19
46 46 46 45 45 46 45 45 46 45 43 39 37 34 28 29 25 25 18 26 24 30 31 31 27 36 37 39 30 29 23 24 31 26 26 27 34 33 31 31 29 30 28 26 24 26 28 27 28 26 24 20 18 16
45 46 45 45 45 45 45 45 45 42 38 28 23 14 20 19 26 26 27 29 33 34 33 31 26 28 27 28 27 28 28 27 22 17 24 28 34 31 31 31 28 27 28 27 26 25 24 24 24 21 16 16 18 17
44 45 45 45 45 45 45 45 45 38 33 26 27 16 25 28 28 29 31 32 33 34 33 29 29 29 26 27 28 29 26 21 25 24 27 26 33 30 28 29 28 28 27 27 27 26 24 25 25 21 18 19 19 15
41 41 41 45 45 45 45 43 39 36 31 29 28 26 27 24 23 22 27 30 36 35 37 33 28 26 27 27 27 28 26 26 28 29 30 32 30 29 30 31 30 30 29 28 29 28 28 27 27 26 26 24 15 18
42 35 41 44 44 45 44 36 34 28 28 29 25 28 27 26 25 26 30 31 38 36 32 33 28 28 29 26 28 28 26 29 30 28 31 33 30 29 30 31 30 30 30 29 29 29 29 30 29 28 25 25 24 23
32 38 44 44 41 39 37 35 31 30 26 27 24 26 27 28 26 29 30 34 33 35 35 32 35 29 25 27 27 30 30 31 31 32 32 33 33 32 32 30 31 31 31 30 30 30 30 29 28 27 27 25 25 25
34 36 43 44 37 34 29 29 32 24 28 28 28 28 28 29 31 33 32 34 36 36 35 33 31 28 29 30 31 31 31 32 31 30 30 33 33 33 32 33 32 32 31 29 29 29 30 29 29 27 25 26 23 24
40 40 41 41 35 21 22 25 33 27 26 27 30 28 28 28 31 30 31 33 31 29 28 27 31 31 30 34 34 34 34 35 33 31 30 28 32 33 33 33 33 31 30 29 29 28 28 27 28 28 27 26 23 22
37 35 39 34 27 25 22 20 23 27 28 27 31 30 27 29 29 29 30 33 28 26 26 31 32 33 36 36 39 39 38 39 35 35 32 30 32 33 32 31 31 30 30 29 28 27 27 27 28 28 25 24 23 24
31 40 33 35 28 29 25 27 23 24 29 28 29 29 26 22 26 28 31 28 30 33 30 30 32 34 36 37 37 42 41 42 42 35 32 34 31 32 31 31 31 29 29 29 30 29 29 29 29 28 25 21 22 23
35 33 28 30 25 23 21 30 24 24 20 25 28 26 26 26 28 32 26 31 33 35 33 34 37 39 39 39 41 42 41 42 38 36 35 34 35 34 34 33 33 30 29 29 31 30 27 26 26 26 24 23 23 21
35 24 18 18 22 10 27 21 26 26 25 22 18 19 25 25 31 29 26 28 33 32 32 34 37 36 34 36 37 36 36 39 39 39 38 36 33 33 35 35 34 33 34 32 30 29 26 26 24 25 24 23 22 21
13 12 16 7 18 17 12 15 22 24 15 22 18 14 16 22 18 21 23 30 31 31 31 32 34 34 33 35 34 35 38 38 37 36 35 38 37 33 33 34 34 34 33 30 29 28 24 25 26 26 25 24 22 21
4 10 12 13 9 15 19 8 9 12 20 14 21 24 22 18 17 18 26 29 31 32 32 33 32 30 30 33 33 33 36 37 37 36 36 38 38 38 35 33 32 31 34 35 32 30 27 27 26 25 25 24 22 22
2 4 24 27 25 26 17 20 26 20 12 13 19 19 15 8 10 23 28 30 30 33 33 34 34 33 33 32 33 34 34 36 36 37 39 39 41 42 40 37 35 37 36 36 34 33 30 28 27 26 26 25 24 24
15 21 7 16 17 25 8 14 12 10 20 26 23 15 15 18 17 27 29 32 33 35 34 33 34 34 33 33 33 31 30 31 32 33 32 32 36 41 41 42 39 35 37 37 36 35 33 31 30 28 27 25 24 25
14 24 22 4 4 19 18 13 15 25 27 24 14 19 23 29 30 29 30 31 31 29 29 29 30 29 32 31 30 30 28 29 30 31 32 33 33 35 37 38 35 36 36 35 35 35 34 32 31 30 29 28 27 26
12 26 13 5 6 9 12 20 17 20 25 25 24 24 27 25 26 28 27 27 25 23 25 27 32 32 31 32 31 29 25 30 33 33 33 34 37 37 35 35 35 35 35 35 34 31 30 28 25 24 26 23 24 24
24 21 11 13 6 13 14 15 14 17 16 17 13 17 21 21 22 26 29 27 27 23 23 22 28 27 26 27 31 30 30 29 33 34 35 36 36 34 35 35 36 35 35 35 34 31 30 28 28 27 25 25 24 25
6 6 6 1 4 11 9 10 11 13 14 23 21 19 20 14 12 19 26 25 28 27 22 19 20 25 26 33 33 33 33 34 34 34 34 34 34 35 36 35 35 35 35 34 34 33 30 30 28 27 25 25 24 24
5 2 4 5 6 4 7 9 10 8 6 9 11 21 21 19 14 20 20 26 26 26 29 31 32 32 32 31 32 33 33 34 34 33 33 33 34 35 35 34 34 34 34 34 33 33 31 31 30 30 30 29 28 29
MSLP
1019.47 1019.80 1020.27 1020.65 1021.01 1021.36 1021.54 1021.46 1021.22 1021.17 1020.69 1020.64 1020.57 1020.47 1020.34 1020.10 1020.04 1020.45 1021.30 1021.07 1021.16 1022.71 1023.22 1022.76 1022.34 1022.19 1022.40 1022.96 1024.06 1024.97 1025.50 1026.22 1027.02 1027.73 1028.46 1028.89 1028.27 1027.12 1026.50 1025.49 1025.58 1026.43 1027.26 1028.25 1028.97 1029.17 1027.77 1026.51 1026.66 1027.01 1028.33 1028.74 1029.86 1030.43
1019.95 1020.19 1020.48 1020.70 1020.92 1021.18 1021.12 1021.00 1021.00 1020.96 1020.90 1021.09 1021.03 1021.13 1021.19 1020.61 1020.49 1020.73 1021.48 1021.06 1020.96 1022.41 1023.63 1023.28 1022.87 1022.74 1022.60 1022.72 1023.24 1024.36 1024.82 1025.20 1026.10 1027.07 1028.12 1028.66 1028.76 1027.90 1027.05 1026.22 1025.08 1025.70 1025.39 1025.73 1026.54 1027.06 1027.19 1027.16 1027.42 1027.98 1028.52 1029.20 1030.00 1030.01
1020.65 1020.70 1020.82 1021.06 1021.35 1021.56 1021.41 1021.50 1021.49 1021.49 1021.46 1021.54 1021.42 1021.39 1021.62 1021.21 1020.85 1020.91 1021.80 1021.70 1021.83 1023.43 1024.35 1023.97 1023.53 1023.16 1022.46 1022.63 1022.71 1023.86 1024.84 1024.90 1025.82 1026.18 1027.55 1028.66 1029.12 1028.62 1028.18 1027.06 1026.04 1025.21 1025.06 1025.36 1026.17 1027.41 1027.58 1028.25 1028.54 1028.88 1029.10 1029.42 1029.73 1029.60
1020.72 1021.07 1021.38 1021.56 1021.66 1021.70 1021.78 1021.90 1021.92 1022.07 1022.16 1021.89 1021.84 1021.72 1021.73 1022.08 1021.62 1021.26 1021.97 1022.18 1022.31 1023.44 1024.70 1024.93 1023.79 1023.51 1022.74 1022.93 1022.83 1023.13 1023.97 1024.83 1026.14 1027.08 1028.20 1029.19 1029.60 1028.98 1028.65 1027.77 1026.93 1025.72 1025.52 1025.89 1026.46 1027.32 1028.47 1029.10 1029.14 1028.99 1029.30 1029.26 1029.37 1029.38
1021.03 1021.23 1021.37 1021.67 1022.03 1022.37 1022.65 1022.70 1022.61 1022.57 1022.60 1022.45 1022.33 1022.55 1022.36 1022.24 1022.13 1022.07 1022.38 1022.80 1022.54 1023.24 1024.52 1025.01 1024.24 1023.89 1023.53 1023.63 1023.99 1023.93 1024.45 1025.26 1026.71 1028.31 1029.00 1029.32 1029.24 1029.14 1028.83 1028.30 1026.87 1025.58 1025.43 1025.96 1026.34 1026.65 1027.53 1028.57 1028.85 1029.01 1029.23 1029.60 1029.63 1029.67
1021.51 1021.73 1021.88 1022.02 1022.32 1022.56 1022.68 1022.71 1022.78 1022.81 1022.82 1022.80 1022.80 1022.94 1022.85 1022.60 1022.65 1022.94 1023.65 1023.12 1022.85 1022.95 1023.99 1025.18 1025.10 1024.83 1024.49 1024.56 1024.92 1025.17 1025.69 1026.31 1027.38 1028.20 1029.50 1029.11 1028.47 1028.98 1029.61 1028.38 1025.77 1025.29 1024.94 1025.29 1026.09 1027.03 1027.91 1028.77 1029.17 1029.24 1029.49 1029.74 1029.98 1030.05
1021.76 1021.97 1022.13 1022.39 1022.84 1022.95 1023.12 1023.22 1023.39 1023.44 1023.25 1023.30 1023.23 1023.10 1022.96 1022.86 1023.06 1023.48 1023.94 1023.60 1022.90 1023.49 1024.54 1025.79 1025.75 1025.56 1025.39 1025.37 1026.20 1026.61 1026.71 1027.49 1028.05 1028.86 1029.57 1029.38 1028.95 1028.61 1028.91 1027.90 1025.93 1025.57 1025.92 1026.35 1026.65 1027.55 1028.90 1029.23 1029.49 1029.50 1029.68 1030.13 1030.36 1030.72
1021.92 1022.21 1022.46 1022.76 1022.95 1023.08 1023.34 1023.55 1023.41 1023.34 1023.34 1023.28 1023.22 1023.31 1023.36 1023.32 1023.38 1023.62 1023.79 1023.31 1023.20 1024.27 1024.98 1026.08 1026.27 1026.06 1025.63 1026.34 1027.30 1027.47 1027.96 1028.27 1028.73 1029.18 1029.54 1029.27 1028.86 1028.92 1028.33 1025.93 1025.85 1026.35 1026.82 1027.36 1027.85 1028.08 1028.50 1029.29 1029.48 1029.73 1029.83 1030.42 1030.90 1031.58
1022.05 1022.40 1022.70 1022.98 1023.27 1023.49 1023.75 1023.60 1023.60 1023.60 1023.53 1023.56 1023.40 1023.41 1023.69 1023.95 1024.35 1024.44 1023.93 1023.76 1023.91 1024.80 1025.50 1025.86 1026.17 1026.25 1026.07 1026.97 1027.79 1028.09 1028.27 1028.99 1028.97 1029.16 1029.05 1028.89 1028.36 1027.68 1025.56 1025.20 1025.83 1026.74 1027.07 1027.98 1028.59 1029.07 1029.35 1029.67 1029.75 1029.87 1030.28 1030.79 1031.64 1032.55
1022.05 1022.43 1022.79 1023.07 1023.38 1023.72 1023.73 1023.78 1023.87 1023.73 1023.74 1023.67 1023.43 1024.39 1024.99 1024.91 1024.55 1024.32 1024.45 1024.90 1025.28 1025.43 1025.38 1025.77 1025.72 1026.04 1026.38 1027.20 1028.08 1028.71 1028.85 1029.19 1029.13 1028.61 1028.20 1028.03 1026.87 1025.01 1024.47 1024.91 1025.76 1026.60 1027.41 1028.13 1028.84 1029.70 1029.98 1030.01 1030.05 1030.22 1030.66 1031.35 1032.24 1033.02
1022.09 1022.50 1022.90 1023.24 1023.59 1023.86 1023.98 1024.07 1023.98 1023.84 1023.91 1024.13 1024.37 1025.15 1025.17 1024.64 1024.62 1024.96 1025.79 1026.07 1026.06 1025.97 1025.89 1025.72 1025.59 1025.89 1026.27 1026.81 1027.71 1028.14 1028.50 1028.73 1028.71 1027.96 1028.00 1027.24 1025.68 1024.02 1024.36 1025.57 1026.62 1027.44 1028.07 1028.53 1028.74 1028.95 1029.20 1029.82 1030.13 1030.54 1031.39 1032.23 1032.95 1033.58
1022.16 1022.69 1023.14 1023.50 1023.76 1024.02 1024.14 1024.09 1023.98 1024.30 1024.63 1024.69 1024.70 1024.98 1025.25 1025.48 1025.46 1025.91 1026.20 1026.21 1026.21 1025.91 1025.81 1025.65 1025.50 1025.55 1025.98 1025.99 1027.10 1028.06 1028.04 1028.28 1027.82 1027.32 1027.35 1026.29 1024.37 1024.43 1025.37 1026.44 1027.58 1028.33 1028.68 1029.04 1029.29 1029.28 1029.77 1030.20 1030.52 1031.23 1032.09 1032.94 1033.79 1034.28
1022.28 1022.83 1023.38 1023.74 1023.98 1024.22 1024.39 1024.42 1024.45 1024.51 1024.57 1024.77 1025.13 1025.77 1025.98 1026.29 1026.37 1026.45 1026.34 1025.96 1025.77 1025.39 1025.53 1025.64 1025.99 1025.85 1025.96 1026.16 1026.99 1027.60 1027.66 1027.37 1026.68 1026.87 1026.10 1024.67 1024.35 1025.29 1026.18 1027.18 1028.00 1028.63 1029.07 1029.47 1029.75 1029.92 1030.25 1030.73 1031.32 1031.91 1032.71 1033.56 1034.22 1034.94
1022.60 1023.11 1023.59 1023.95 1024.23 1024.48 1024.70 1024.68 1024.72 1024.79 1024.89 1025.66 1026.29 1026.75 1026.68 1026.77 1026.49 1026.11 1025.60 1025.11 1024.49 1024.64 1024.93 1025.34 1026.12 1025.99 1026.12 1026.40 1026.61 1027.13 1026.65 1026.30 1026.39 1026.18 1025.14 1024.06 1024.19 1025.10 1026.18 1027.21 1027.92 1028.68 1029.16 1029.62 1029.95 1030.22 1030.73 1031.35 1031.93 1032.56 1033.25 1034.02 1034.69 1035.40
1022.87 1023.28 1023.75 1024.20 1024.50 1024.76 1024.94 1025.02 1025.10 1025.32 1025.74 1026.30 1026.54 1026.83 1026.67 1026.11 1025.77 1025.59 1025.18 1024.90 1024.40 1024.30 1024.83 1025.53 1026.04 1026.40 1026.47 1026.52 1026.31 1026.29 1026.04 1025.71 1025.15 1024.44 1023.61 1023.11 1023.78 1025.04 1026.02 1027.15 1028.01 1028.41 1029.01 1029.60 1029.91 1030.50 1031.11 1031.55 1032.16 1033.06 1033.75 1034.38 1034.96 1035.56
1023.30 1023.75 1024.09 1024.33 1024.76 1025.06 1025.23 1025.38 1025.64 1026.05 1026.33 1026.58 1026.72 1026.61 1026.21 1026.30 1025.93 1025.56 1025.09 1024.79 1024.32 1024.52 1024.71 1025.26 1025.88 1026.24 1026.01 1025.88 1025.91 1025.51 1025.27 1024.26 1023.45 1023.05 1022.69 1023.13 1024.15 1025.02 1026.00 1027.05 1027.69 1028.12 1028.77 1029.35 1029.95 1030.51 1031.05 1031.58 1032.15 1032.94 1033.79 1034.47 1035.03 1035.53
1023.52 1024.12 1024.23 1024.44 1024.93 1025.30 1025.63 1026.12 1026.50 1026.86 1026.93 1026.75 1026.42 1025.94 1026.17 1026.16 1025.99 1025.35 1024.96 1024.65 1024.16 1024.80 1024.96 1025.11 1025.13 1024.81 1024.90 1024.94 1024.63 1024.17 1023.61 1022.81 1022.41 1022.44 1022.81 1023.30 1023.91 1024.96 1026.08 1026.84 1027.33 1027.87 1028.53 1029.25 1029.84 1030.37 1030.92 1031.60 1032.22 1032.91 1033.56 1034.30 1034.90 1035.39
1024.07 1023.96 1024.26 1024.61 1025.19 1025.77 1026.31 1026.70 1026.98 1026.89 1026.67 1026.29 1026.29 1025.72 1025.69 1025.45 1025.42 1025.11 1024.67 1024.46 1024.72 1024.68 1024.64 1024.23 1023.92 1024.02 1023.76 1023.48 1023.15 1022.43 1022.18 1021.95 1022.05 1022.42 1022.75 1023.33 1024.09 1025.01 1025.67 1026.21 1026.92 1027.56 1028.23 1028.92 1029.55 1030.11 1030.74 1031.40 1031.96 1032.49 1033.11 1033.91 1034.54 1035.11
1024.47 1024.50 1024.54 1024.91 1025.57 1026.25 1026.78 1026.97 1026.92 1026.46 1025.86 1025.64 1025.49 1025.20 1025.07 1024.89 1024.59 1024.24 1024.09 1023.86 1023.83 1023.72 1024.03 1023.91 1023.73 1023.13 1022.61 1022.05 1021.93 1021.67 1021.46 1021.61 1022.05 1022.70 1023.36 1023.61 1024.16 1024.86 1025.43 1025.94 1026.59 1027.26 1027.91 1028.58 1029.15 1029.64 1030.30 1031.02 1031.46 1032.07 1032.72 1033.44 1034.06 1034.71
1024.79 1025.03 1025.19 1025.48 1025.87 1026.69 1027.07 1026.87 1026.60 1026.13 1025.38 1024.98 1024.74 1024.70 1024.64 1024.34 1024.09 1024.02 1023.87 1023.75 1023.78 1023.97 1024.08 1023.86 1023.07 1022.74 1022.52 1022.00 1021.81 1021.57 1021.26 1021.28 1021.97 1022.73 1023.55 1024.06 1024.26 1024.62 1025.16 1025.62 1026.17 1026.93 1027.72 1028.43 1029.08 1029.54 1030.30 1030.95 1031.35 1031.78 1032.32 1032.94 1033.66 1034.24
1025.18 1025.52 1025.70 1026.00 1026.38 1026.70 1026.93 1026.60 1026.20 1025.51 1024.81 1024.31 1023.71 1023.88 1023.95 1023.65 1023.55 1023.64 1023.51 1023.21 1023.47 1023.58 1023.24 1022.86 1022.57 1021.95 1021.83 1021.72 1021.61 1021.52 1020.92 1021.28 1021.72 1021.96 1022.57 1023.51 1024.01 1024.49 1024.96 1025.58 1026.11 1026.67 1027.26 1027.90 1028.49 1029.03 1029.68 1030.13 1030.62 1031.12 1031.80 1032.48 1033.05 1033.60
1025.48 1025.30 1025.81 1026.05 1026.61 1026.78 1026.75 1025.93 1025.69 1024.86 1024.77 1024.08 1023.75 1023.52 1023.44 1023.27 1023.02 1022.70 1022.35 1022.57 1022.25 1022.01 1021.92 1021.71 1021.55 1021.60 1021.40 1021.28 1021.08 1021.29 1021.07 1020.62 1021.07 1021.93 1022.39 1022.60 1023.50 1023.99 1024.29 1024.76 1025.49 1026.01 1026.58 1027.11 1027.70 1028.21 1028.77 1029.35 1029.98 1030.54 1031.27 1031.97 1032.52 1033.24
1025.32 1025.66 1026.04 1026.16 1026.33 1026.36 1025.67 1024.86 1025.11 1024.72 1024.46 1023.82 1023.37 1023.30 1022.89 1022.69 1022.25 1021.60 1021.79 1021.15 1020.87 1020.47 1020.57 1020.61 1020.55 1020.57 1020.48 1020.25 1020.22 1020.24 1020.36 1020.57 1021.18 1021.29 1021.92 1022.26 1022.53 1022.87 1023.34 1023.88 1024.42 1025.03 1025.78 1026.39 1026.92 1027.55 1028.14 1028.73 1029.36 1030.06 1030.70 1031.43 1032.10 1032.88
1025.45 1026.17 1026.45 1026.17 1025.94 1025.67 1024.94 1024.63 1024.38 1024.07 1023.70 1023.69 1023.54 1023.17 1022.92 1022.42 1022.03 1021.72 1021.50 1020.55 1020.16 1020.00 1020.00 1019.90 1019.97 1020.02 1019.92 1019.79 1019.74 1019.63 1019.77 1019.97 1020.23 1020.59 1020.63 1021.47 1022.17 1022.50 1022.69 1023.06 1023.53 1023.98 1024.44 1025.30 1026.09 1026.73 1027.41 1028.11 1028.71 1029.44 1030.09 1030.83 1031.50 1032.16
1026.73 1026.96 1026.70 1026.32 1025.56 1025.17 1024.98 1024.37 1023.85 1023.74 1023.49 1023.37 1023.25 1022.96 1022.60 1022.30 1022.04 1021.39 1020.47 1019.87 1020.03 1019.82 1019.37 1019.17 1019.14 1019.14 1019.26 1019.10 1019.11 1019.07 1018.85 1019.18 1019.58 1019.98 1020.06 1020.34 1020.84 1021.67 1022.13 1022.44 1022.89 1023.12 1023.62 1024.54 1025.25 1025.77 1026.53 1027.27 1027.98 1028.61 1029.27 1029.90 1030.58 1031.28
1026.80 1026.26 1026.13 1025.27 1024.98 1024.60 1024.17 1024.11 1023.76 1023.54 1023.37 1023.20 1022.90 1022.38 1022.06 1022.15 1021.99 1020.83 1019.51 1019.10 1019.29 1019.27 1019.52 1019.22 1019.04 1019.01 1018.98 1018.89 1018.93 1018.87 1018.78 1018.63 1018.83 1019.05 1019.02 1019.42 1019.80 1020.24 1020.71 1021.23 1021.82 1022.28 1022.58 1022.87 1023.80 1024.65 1025.42 1026.09 1026.90 1027.65 1028.29 1028.90 1029.57 1030.34
1026.22 1025.67 1024.56 1023.85 1023.80 1023.70 1023.53 1023.18 1022.98 1023.00 1022.93 1022.88 1022.45 1022.36 1022.04 1021.83 1021.19 1020.31 1019.41 1019.47 1019.45 1019.16 1019.20 1018.91 1018.58 1018.52 1018.74 1018.76 1018.73 1018.55 1018.47 1018.21 1018.28 1018.07 1017.89 1017.94 1018.13 1018.40 1018.85 1019.37 1019.70 1019.81 1020.66 1021.49 1022.25 1022.93 1023.80 1024.74 1025.59 1026.40 1027.17 1027.93 1028.49 1029.06
1024.85 1024.29 1024.23 1024.12 1024.05 1023.89 1023.94 1023.56 1023.26 1022.85 1022.37 1021.87 1021.85 1021.90 1021.80 1021.20 1020.80 1020.59 1020.12 1019.74 1019.74 1019.39 1019.13 1018.79 1018.68 1018.45 1018.39 1018.26 1018.03 1017.90 1017.85 1017.81 1017.66 1017.54 1017.46 1017.39 1017.37 1017.32 1017.36 1017.54 1017.86 1018.36 1019.15 1019.96 1020.75 1021.66 1022.50 1023.39 1024.19 1025.08 1025.87 1026.55 1027.34 1028.05
1023.89 1023.59 1023.89 1024.05 1024.25 1024.06 1023.69 1023.42 1022.88 1022.15 1021.52 1021.28 1021.45 1021.48 1021.07 1020.67 1020.23 1020.08 1019.85 1019.32 1018.86 1018.80 1018.97 1018.81 1018.48 1018.45 1018.28 1018.06 1017.89 1017.75 1017.96 1017.86 1017.59 1017.64 1017.71 1017.33 1017.11 1016.98 1016.86 1017.03 1017.45 1017.89 1018.40 1019.21 1019.94 1020.43 1021.17 1022.02 1022.96 1023.76 1024.43 1025.25 1026.03 1026.99
1023.28 1023.24 1023.86 1024.10 1024.52 1024.18 1023.37 1022.65 1022.31 1021.96 1021.76 1021.36 1021.21 1021.13 1020.76 1020.21 1019.77 1019.21 1019.06 1018.96 1019.01 1018.80 1018.65 1018.70 1018.45 1018.36 1018.30 1018.22 1017.87 1017.64 1017.54 1017.42 1017.30 1017.21 1016.76 1016.31 1015.74 1015.48 1015.68 1016.12 1016.67 1017.18 1017.67 1018.37 1019.27 1020.30 1021.23 1022.04 1022.83 1023.67 1024.32 1025.04 1025.64 1026.23
1022.65 1022.95 1023.48 1023.98 1024.14 1023.49 1023.06 1022.49 1022.23 1022.09 1021.99 1021.65 1021.37 1021.40 1021.12 1020.45 1019.49 1018.74 1018.52 1018.28 1018.17 1018.24 1018.39 1018.34 1018.13 1017.92 1018.05 1017.65 1017.51 1017.25 1017.01 1016.69 1016.39 1016.41 1015.98 1015.26 1014.78 1014.84 1014.92 1015.01 1015.34 1016.03 1016.72 1017.48 1018.35 1019.35 1020.35 1021.27 1022.00 1022.75 1023.40 1023.93 1024.49 1025.07
1023.15 1023.56 1023.63 1024.34 1024.20 1023.26 1023.04 1023.06 1022.67 1022.39 1021.95 1022.05 1022.03 1021.55 1021.70 1021.30 1020.58 1019.37 1017.80 1017.71 1018.11 1018.14 1018.21 1018.23 1017.83 1017.43 1017.16 1016.94 1016.82 1016.67 1016.40 1016.04 1015.66 1015.52 1015.09 1014.41 1013.93 1013.83 1014.06 1014.49 1014.88 1015.25 1015.93 1016.69 1017.45 1018.28 1019.28 1020.05 1020.86 1021.61 1022.26 1022.81 1023.38 1024.01
1023.54 1023.37 1023.53 1024.10 1024.10 1024.08 1023.67 1023.34 1022.80 1022.47 1021.92 1022.08 1021.60 1021.23 1021.13 1021.04 1020.25 1019.29 1017.59 1017.37 1017.52 1017.64 1017.67 1017.62 1017.47 1017.20 1016.92 1016.67 1016.27 1015.88 1015.66 1015.30 1015.02 1014.74 1014.16 1013.71 1013.46 1013.32 1013.42 1013.86 1014.31 1014.82 1015.45 1016.15 1016.83 1017.51 1018.39 1019.17 1019.90 1020.61 1021.24 1021.87 1022.45 1023.08
Wind_Speed
14 14 13 14 14 14 13 11 12 11 13 13 14 14 14 14 10 4 2 2 4 4 3 5 6 4 4 4 6 5 6 4 3 3 4 4 3 5 2 3 6 9 7 5 3 2 9 1 2 2 2 3 2 4
15 15 14 13 13 11 11 10 10 10 11 11 12 13 13 14 14 3 3 3 2 6 4 1 3 3 4 1 7 0 5 4 5 4 0 3 1 2 2 3 1 4 7 7 9 7 2 4 5 5 5 4 4 3
14 14 13 12 11 10 10 9 8 9 9 10 11 11 13 15 16 7 2 2 4 5 5 5 3 5 5 5 2 6 2 3 3 2 4 2 1 2 3 5 3 1 3 3 3 5 6 6 5 5 4 5 2 3
13 12 12 12 11 9 9 8 8 7 7 8 9 10 11 12 13 8 4 4 4 4 6 4 2 3 3 6 6 3 7 6 6 3 3 3 3 2 3 3 3 4 2 4 2 6 7 4 4 6 4 6 5 6
12 11 10 10 10 10 8 7 6 6 5 6 6 6 7 9 10 5 4 3 2 5 5 2 1 4 3 5 9 7 7 6 4 3 3 2 2 2 2 2 5 4 6 5 6 5 4 4 4 4 6 5 5 4
12 11 10 10 9 7 7 7 7 6 5 5 3 3 4 5 4 4 5 4 4 2 5 3 1 5 7 9 11 9 5 5 3 4 2 2 2 4 2 4 5 4 1 5 7 4 4 8 5 4 5 6 5 5
11 10 10 10 8 7 7 8 6 6 6 7 8 7 7 3 3 4 4 3 5 3 4 3 3 3 2 4 4 4 5 3 3 2 1 2 2 4 3 5 3 5 6 6 7 10 4 4 4 4 7 8 8 7
12 10 10 9 8 8 7 6 7 7 7 7 7 7 5 6 4 5 4 7 5 5 4 4 2 2 2 3 3 2 2 2 3 2 2 2 2 2 6 7 3 7 7 6 5 3 5 6 6 6 7 8 8 7
12 11 11 9 8 9 7 6 7 6 6 5 6 6 4 5 3 2 6 5 2 4 3 2 5 4 2 2 2 4 2 1 1 1 3 4 2 8 8 6 8 9 8 9 7 7 7 6 7 8 9 10 8 6
13 12 11 10 11 9 7 6 5 6 5 5 4 5 4 2 4 3 7 5 5 3 3 1 2 2 4 2 1 3 1 2 2 5 2 2 6 10 8 6 6 9 11 12 8 5 6 6 7 8 7 8 8 7
14 14 14 13 11 9 7 5 5 6 4 3 3 2 2 3 3 3 3 3 2 3 0 2 2 3 2 4 3 2 3 1 2 4 4 4 5 3 6 9 7 7 6 4 4 6 6 8 9 9 8 7 9 8
17 16 14 13 11 8 7 6 7 4 1 2 2 2 2 3 2 2 1 2 1 3 1 3 2 2 1 3 4 2 3 2 5 4 3 4 4 5 9 12 10 7 7 7 4 8 7 9 9 9 8 7 5 6
17 16 14 12 10 9 6 7 8 5 2 3 4 2 3 2 1 2 2 2 1 3 3 2 1 3 1 2 1 3 2 5 1 2 5 6 5 8 11 11 11 8 8 7 7 7 10 9 8 9 8 6 7 7
13 12 14 12 10 8 6 6 7 5 3 3 4 2 4 3 5 5 4 3 4 3 5 4 2 3 1 2 3 3 5 3 2 3 6 4 9 13 11 10 11 11 10 8 8 8 9 8 8 7 7 6 8 8
14 15 14 11 10 8 6 7 6 3 3 2 3 3 5 4 2 3 4 2 2 4 5 3 3 3 1 2 2 1 1 4 5 6 5 3 12 13 12 12 11 11 10 9 9 8 8 9 9 7 6 5 7 6
17 12 2 13 10 8 7 5 4 3 2 2 2 2 3 2 4 3 1 1 0 3 3 2 3 2 4 3 3 7 4 6 5 4 2 7 11 11 13 13 12 11 11 9 9 9 10 9 10 9 9 8 5 7
7 3 6 12 10 8 8 4 3 2 1 3 4 3 2 0 4 3 2 2 1 4 2 2 5 8 2 3 4 5 5 4 4 2 3 6 11 12 12 11 11 11 11 11 11 10 10 9 9 10 11 10 9 9
3 2 15 13 8 5 2 2 2 4 6 5 3 4 2 3 2 3 2 2 3 4 3 3 2 4 5 4 4 5 4 2 0 3 5 7 10 11 11 13 12 12 12 11 11 11 10 11 11 9 10 10 8 8
4 6 8 12 7 3 2 1 2 3 5 2 3 3 2 3 3 4 3 3 4 3 3 2 5 4 4 3 3 3 3 3 4 3 2 5 9 11 11 11 11 11 12 12 12 10 9 11 9 7 8 9 7 7
11 10 11 11 6 4 2 2 3 3 3 5 3 3 3 4 4 3 4 3 3 2 2 5 4 3 3 2 1 3 3 3 3 3 2 1 4 9 10 9 9 9 9 9 8 8 7 7 6 7 9 9 8 8
6 4 7 4 2 3 3 1 3 4 3 4 5 6 4 2 4 5 6 3 3 4 4 5 4 4 3 3 3 4 3 3 2 4 5 5 5 6 7 6 6 6 7 8 9 8 9 9 8 8 9 8 7 7
1 9 2 2 2 3 3 4 4 3 2 3 2 3 3 3 6 6 4 5 7 8 5 5 4 5 5 5 4 3 6 4 6 3 3 9 7 7 8 8 9 8 8 9 9 9 9 7 7 8 8 7 7 7
1 3 1 2 4 7 6 3 4 4 3 3 1 3 2 1 3 2 3 5 9 8 5 5 6 7 9 7 6 5 6 4 2 4 5 4 4 4 6 8 9 9 8 7 7 7 6 7 9 9 7 7 8 7
3 2 2 3 5 5 2 3 4 4 3 2 3 4 4 3 1 1 5 3 6 3 4 7 7 8 4 5 7 5 5 5 6 6 6 8 6 6 7 8 8 8 9 7 8 7 6 7 8 8 9 9 10 10
7 6 4 6 4 3 3 2 4 4 4 4 2 4 4 1 2 4 5 7 4 8 4 4 6 7 8 7 4 5 7 6 5 6 5 7 5 2 4 5 7 8 8 8 9 9 7 8 9 10 11 11 13 12
3 6 8 7 4 5 6 4 5 6 5 2 4 4 2 3 4 7 3 3 4 2 0 2 3 1 2 2 3 3 5 3 5 6 5 8 9 9 9 10 9 8 10 11 11 12 12 12 12 13 12 13 14 13
5 6 5 4 3 2 2 2 2 3 5 7 2 4 1 3 7 4 2 5 1 0 3 3 4 5 4 4 3 3 3 2 5 5 5 7 10 11 11 12 14 9 12 14 12 14 16 15 14 14 13 11 13 14
7 4 5 5 1 1 3 2 4 5 5 4 3 5 5 5 1 2 3 3 3 4 5 5 4 3 3 4 3 2 3 3 3 3 2 2 4 8 11 10 6 12 12 14 14 13 14 15 15 15 15 14 12 12
4 4 2 4 2 3 5 5 5 4 3 1 4 3 2 3 3 3 3 4 3 1 2 3 4 1 5 4 4 3 2 2 3 4 11 8 4 7 7 6 5 8 9 10 15 15 18 16 15 15 16 14 11 11
4 6 4 4 6 6 6 3 4 4 3 2 3 3 4 3 4 3 2 2 2 4 4 3 3 4 6 6 8 7 3 4 6 7 8 12 11 6 7 9 9 9 9 10 11 8 9 6 6 5 8 7 8 10
4 4 2 4 5 5 5 3 2 2 1 4 3 4 5 4 4 3 4 4 4 1 2 3 3 4 5 4 7 7 8 3 5 8 10 9 8 6 8 9 9 10 11 12 13 12 13 11 11 12 13 14 14 13
2 6 6 4 5 6 2 3 4 4 2 2 3 3 6 4 3 5 5 3 1 2 4 3 4 6 4 5 5 6 9 8 8 10 13 8 8 8 8 7 8 10 12 13 13 13 17 16 13 13 13 16 15 16
2 2 2 3 3 3 5 3 2 4 1 3 4 6 6 6 7 6 3 2 3 3 2 2 6 7 9 10 8 8 8 7 11 12 12 8 6 7 8 8 9 11 14 12 12 13 18 18 15 15 15 15 15 15
Wind_Direction
108 112 115 119 117 117 114 101 86 71 65 51 40 35 28 25 17 79 219 310 118 112 338 14 16 50 71 91 135 186 62 337 55 115 134 216 180 230 230 212 174 174 166 189 147 214 270 22 20 156 162 68 93 240
104 102 101 108 109 105 96 86 73 66 55 54 48 30 22 25 32 103 57 332 60 83 170 311 101 61 66 102 125 191 153 154 176 108 89 93 300 3 156 246 233 209 189 178 175 210 136 11 122 102 124 161 225 258
107 106 103 100 102 104 94 82 71 61 58 46 39 39 23 24 29 71 111 333 55 86 6 42 7 337 32 26 198 118 316 133 95 148 147 134 164 101 183 245 299 98 3 138 101 158 137 145 109 144 161 167 100 20
108 106 108 111 108 100 96 91 79 65 49 49 36 30 37 23 25 45 70 324 75 102 105 287 288 17 339 14 46 84 124 74 83 49 94 117 143 152 237 243 214 214 40 150 303 107 124 147 161 156 126 89 67 46
120 110 102 106 113 116 111 102 91 84 68 50 45 34 34 31 20 47 63 21 89 124 146 201 15 12 59 54 48 53 84 95 90 58 67 204 210 91 289 352 248 193 193 168 218 179 154 154 151 111 81 87 77 79
133 124 117 117 114 109 99 90 82 69 53 43 43 49 23 26 45 54 34 329 2 68 90 88 265 17 39 65 58 42 43 59 77 112 213 273 247 111 116 247 258 217 188 155 177 145 92 124 119 118 111 101 83 78
141 134 127 125 125 116 106 97 85 71 61 62 62 63 38 59 71 102 170 234 346 75 78 83 16 333 30 69 38 30 27 54 84 117 112 175 296 102 147 228 267 112 103 95 109 108 70 183 174 133 119 107 100 86
146 142 138 132 120 112 106 94 80 60 58 64 53 41 34 87 83 32 343 8 52 80 65 108 114 46 2 65 64 359 54 35 7 173 7 155 334 87 250 235 115 128 110 95 106 81 134 137 125 126 122 116 108 108
150 148 145 141 136 128 114 84 60 47 38 40 49 37 41 32 44 287 311 14 37 116 122 108 145 190 80 81 114 24 54 49 306 120 240 108 223 224 234 203 163 176 175 162 124 121 129 131 127 117 124 121 120 115
152 151 150 145 136 129 113 91 52 23 4 4 54 48 14 298 299 354 9 21 16 338 37 146 127 149 107 125 108 93 58 211 209 232 112 178 251 244 236 219 174 148 148 140 117 151 156 142 136 128 123 133 139 135
151 147 145 141 135 127 106 64 21 19 49 41 58 105 246 320 37 36 40 47 336 355 268 233 135 128 253 118 146 195 159 196 251 234 167 240 260 234 120 113 103 110 122 120 135 132 135 141 140 130 121 122 125 123
146 142 141 138 131 118 91 47 21 60 93 161 139 113 52 48 26 65 27 319 48 256 282 128 192 125 223 115 98 264 179 114 249 150 200 258 255 138 138 130 124 123 123 119 114 114 112 120 119 120 121 120 114 117
143 141 143 142 133 122 100 71 61 60 67 42 52 82 79 306 118 197 210 242 262 178 194 158 82 119 52 98 101 125 118 222 76 200 237 228 153 155 153 148 136 135 123 120 110 102 107 104 112 118 118 115 114 111
132 137 148 145 134 122 104 72 44 25 66 90 102 27 139 247 207 201 193 190 240 154 147 124 47 115 215 104 148 165 228 100 220 224 237 234 180 161 153 153 141 152 147 138 127 116 115 119 116 109 116 125 127 133
185 164 149 142 135 125 101 69 43 43 70 99 96 221 223 237 266 235 233 285 316 127 121 69 42 91 317 105 192 135 286 241 215 230 230 218 148 154 152 158 156 155 150 149 137 135 136 128 127 129 132 134 129 127
101 79 156 150 140 127 110 72 38 46 35 63 242 262 260 62 301 344 169 226 26 125 87 78 140 136 216 189 169 206 215 223 247 225 195 129 145 150 158 168 166 153 157 149 149 149 148 148 146 140 140 142 140 147
112 115 175 140 144 149 94 62 47 64 208 216 244 230 185 211 214 241 176 245 145 118 180 217 185 214 143 201 212 195 212 222 227 246 141 156 156 154 158 158 156 156 156 162 161 159 156 153 144 151 161 162 167 167
54 151 163 152 127 81 69 50 162 218 215 229 211 247 197 196 218 275 251 147 122 191 167 233 287 184 207 196 228 240 234 259 63 163 156 147 145 153 159 156 158 166 166 165 168 163 162 162 168 177 171 166 164 168
113 89 117 138 107 111 126 259 206 245 227 210 235 260 206 225 223 230 238 236 194 186 142 209 231 211 224 218 234 259 213 189 168 161 129 137 146 155 154 154 160 170 174 172 176 175 176 182 183 170 163 167 170 170
109 109 118 117 86 88 58 258 192 251 221 214 210 239 202 212 219 216 243 241 153 137 181 197 234 236 199 268 296 281 249 151 117 92 98 125 156 151 165 166 178 166 164 169 174 165 166 178 182 173 173 175 172 182
125 165 129 87 41 87 167 235 257 217 243 218 222 216 238 228 220 227 245 210 171 192 220 219 231 254 207 256 304 304 119 105 254 173 171 170 175 168 160 170 167 165 172 176 182 183 184 192 187 180 175 177 173 174
54 163 100 163 173 185 239 221 206 256 218 275 293 195 219 224 238 228 196 194 234 237 208 195 205 223 259 244 226 268 272 173 162 136 96 124 153 173 180 177 174 180 185 186 188 190 193 180 174 178 176 174 163 164
158 102 101 230 193 200 248 157 197 204 196 232 230 301 255 276 276 137 217 215 233 226 200 207 217 213 228 238 232 221 207 209 213 188 175 189 187 174 166 177 183 178 184 194 186 184 180 168 173 170 167 160 160 159
55 96 166 228 196 240 224 215 207 209 222 195 175 205 227 219 330 198 260 276 265 220 205 217 222 242 261 238 226 227 219 191 217 214 174 160 188 202 192 191 189 194 193 172 177 175 166 172 162 166 168 165 171 169
85 272 139 265 274 210 186 251 216 210 209 208 179 283 278 122 176 229 229 268 325 282 266 233 225 214 222 232 224 221 232 192 200 210 208 191 190 116 176 186 202 197 164 163 182 178 170 163 173 173 173 174 177 178
193 249 172 205 251 172 199 183 199 213 233 242 247 227 150 164 187 250 243 172 190 162 314 84 66 300 245 243 238 223 246 213 186 206 214 181 190 195 193 189 196 214 193 188 176 183 179 177 178 179 184 183 178 174
227 262 223 213 241 272 327 280 201 158 167 199 235 346 71 177 228 254 327 6 9 95 219 222 188 156 187 211 209 226 275 316 211 232 232 195 198 199 190 195 207 208 177 186 183 184 184 183 184 186 188 184 186 187
207 223 196 241 274 233 179 282 205 218 249 233 132 177 204 211 243 297 199 201 236 269 251 245 244 248 250 255 266 240 220 198 247 285 296 287 238 210 206 215 205 159 171 183 185 181 182 185 185 185 187 190 187 189
214 194 189 277 327 220 200 197 221 223 267 93 149 202 250 227 210 212 243 262 272 126 256 268 280 305 284 288 284 254 236 262 115 262 261 247 215 233 211 199 163 168 169 174 185 185 183 179 183 186 187 187 183 176
235 182 177 184 161 219 228 200 283 286 331 245 218 314 304 292 248 225 239 251 223 233 221 210 259 291 288 293 290 291 234 221 233 236 240 243 240 220 176 176 177 175 166 166 171 160 149 151 136 124 157 159 168 174
184 180 148 176 206 232 217 232 272 208 217 271 262 184 247 253 304 259 225 239 238 255 312 287 262 234 236 260 285 285 284 238 219 256 264 252 244 199 193 189 179 168 166 165 164 166 168 170 175 178 177 181 184 183
146 173 159 208 268 271 50 200 225 221 227 163 296 26 328 351 277 272 251 116 173 248 254 252 261 279 253 278 277 267 259 273 276 276 273 263 236 202 185 170 164 161 162 165 167 168 173 175 177 184 186 186 183 186
36 90 128 102 4 325 283 128 269 268 302 194 232 218 217 203 228 250 295 188 168 180 225 284 291 291 290 286 274 282 279 268 268 263 270 259 229 194 169 165 163 164 163 167 169 169 174 180 182 186 186 188 189 191